Terug naar catalogus

STARLINK-32024

ActiefCommunicatieVLEO
NORAD 60112·PAYLOAD·🇺🇸 United States

Gelanceerd Jun 23, 2024 vanaf Cape Canaveral Space Force Station

Loading…

Volgende Passages (komende 24 uur)

TLE

VersSource: CelesTrak SupGP

Epoch: Sep 14, 2026, 21:23 UTC

1 60112C 24117X   26257.89145833  .00048610  00000+0  14355-2 0  2573
2 60112  53.1567 236.1907 0001215 107.6160 259.0885 15.34382338    15

Volg STARLINK-32024 in realtime met AllMySat

Download on the App Store